Regional Weather Roundup
Issued by NWS

Home | Current Version | Previous Version | Text Only | Print | Product List | Glossary On
Versions: 1 2 3 4 5 6 7 8 9 10 11 12 13 14 15 16 17 18 19 20 21 22 23 24 25 26 27 28 29 30 31 32 33 34 35 36 37 38 39 40 41 42 43 44 45 46 47 48 49 50
000
ASUS46 KSEW 251910
RWRWA

WASHINGTON REGIONAL WEATHER ROUNDUP
NATIONAL WEATHER SERVICE SEATTLE WA
1200 PM PDT SUN SEP 25 2016

NOTE:"FAIR" INDICATES FEW OR NO CLOUDS BELOW 12,000 FEET WITH NO
SIGNIFICANT WEATHER AND/OR OBSTRUCTIONS TO VISIBILITY.

WAZ505-507>509-252000-
SEATTLE, TACOMA, EVERETT, AND VICINITY

CITY           SKY/WX    TMP DP  RH WIND       PRES   REMARKS
EVERETT        SUNNY     67  52  58 VRB5      30.41S
BOEING FIELD   PTSUNNY   69  52  54 VRB5      30.39F
RENTON         CLOUDY    68  53  58 NW7       30.39S
SEATAC AIRPORT CLOUDY    69  49  48 W6        30.41S
JBLM-MCCHORD   SUNNY     72  49  43 VRB5      30.39F
PUYALLUP       FAIR      72  48  43 CALM      30.39F
BREMERTON      CLOUDY    70  50  49 CALM      30.44S
JBLM-FT LEWIS  SUNNY     71  53  51 VRB1      30.38F
TACOMA NARROWS SUNNY     66  50  56 CALM      30.40F
$$

WAZ001-503-506-510-514-515-252000-
NORTH INTERIOR

CITY           SKY/WX    TMP DP  RH WIND       PRES   REMARKS
BELLINGHAM     CLOUDY    66  52  60 N6        30.42S
FRIDAY HARBOR  CLOUDY    64  51  62 N3        30.43S
EASTSOUND      CLOUDY    61  52  72 N3        30.41S
PORT ANGELES   CLOUDY    59  52  77 E6        30.43R
EDIZ HOOK      FAIR      56  52  84 CALM      30.43R
PORT TOWNSEND  PTSUNNY   66  54  63 SE6       30.41S
NAS WHIDBEY    CLOUDY    60  51  72 W5        30.45S
ARLINGTON      CLOUDY    66  48  52 N3        30.42S
BURLINGTON     CLOUDY    66  52  59 NE7       30.41F
$$

WAZ020-022-039-040-504-511-512-252000-
SOUTHWEST INTERIOR

CITY           SKY/WX    TMP DP  RH WIND       PRES   REMARKS
SHELTON        PTSUNNY   68  50  52 VRB3      30.37F
OLYMPIA        PTSUNNY   69  50  50 CALM      30.38F
CHEHALIS       FAIR      72  54  53 CALM      30.38F
KELSO          SUNNY     71  48  43 VRB6      30.36F
VANCOUVER      SUNNY     69  51  52 VRB5      30.34F
SCAPPOOSE, OR  SUNNY     70  52  52 CALM      30.34F
PORTLAND, OR   MOSUNNY   68  47  46 VRB6      30.35F
$$

WAZ021-516-517-252000-
WASHINGTON COAST

CITY           SKY/WX    TMP DP  RH WIND       PRES   REMARKS
FORKS          CLOUDY    63  56  78 S3        30.38F
HOQUIAM        PTSUNNY   68  58  70 E6        30.38F
ASTORIA, OR    SUNNY     71  55  56 N8        30.35F
$$

WAZ019-023-024-040-518-519-252000-
CASCADE MOUNTAINS AND COLUMBIA GORGE

CITY           SKY/WX    TMP DP  RH WIND       PRES   REMARKS
STAMPEDE PASS  MOSUNNY   59  49  69 VRB7      30.47S
TROUTDALE, OR  SUNNY     68  51  54 CALM      30.34F
THE DALLES, OR SUNNY     71  43  36 VRB3      30.35F
$$

WAZ026-027-041>044-520-521-252000-
EAST SLOPES

CITY           SKY/WX    TMP DP  RH WIND       PRES   REMARKS
OMAK           SUNNY     70  37  29 S8        30.37F
WENATCHEE      MOSUNNY   70  40  33 S8        30.36F
ELLENSBURG     SUNNY     74  45  35 S7        30.37F
YAKIMA         SUNNY     75  37  25 VRB5      30.37F
$$

WAZ028-034-035-252000-
COLUMBIA BASIN

CITY           SKY/WX    TMP DP  RH WIND       PRES   REMARKS
EPHRATA        MOSUNNY   69  39  33 VRB3      30.37F
MOSES LAKE     MOSUNNY   70  35  27 S5        30.38F
PASCO          SUNNY     73  40  30 CALM      30.37F
HERMISTON, OR  SUNNY     71  40  32 VRB3      30.37F
$$

WAZ036>038-252000-
NORTHEAST WASHINGTON

CITY           SKY/WX    TMP DP  RH WIND       PRES   REMARKS
SPOKANE GEIGER MOSUNNY   67  35  30 SW9       30.41F
SPOKANE FELTS  SUNNY     68  38  33 SW5       30.41F
FAIRCHILD AFB  MOSUNNY   67  37  33 VRB5      30.41S
COEURDALENE,ID NOT AVBL
DEER PARK      SUNNY     65  37  35 CALM      30.42F
$$

WAZ029>033-252000-
SOUTHEAST WASHINGTON

CITY           SKY/WX    TMP DP  RH WIND       PRES   REMARKS
PULLMAN        MOSUNNY   66  34  30 VRB3      30.45F
LEWISTON, ID   SUNNY     69  40  34 N6        30.42F
WALLA WALLA    SUNNY     74  31  20 VRB3      30.38F
PENDLETON, OR  SUNNY     74  32  21 NW7       30.38F
$$



USA.gov is the U.S. government's official web portal to all federal, state and local government web resources and services.